RH
18 19 21 14 9 9 5 2 1 1 2 3 3 3 3 3 3 3 3 3 3 3 2 2 2 2 2 2 2 4 7 8 8 8 8 9 9 9 8 7 7 7 9 10 11 11 12 12 11 9 8 9 10 10 9 8 8 8 13 24 28 28 31 33 35 36 34 32 31 28 25 21 15 9 4 4 5 6 8 8 9 10 14 18 18 20 23 24
12 13 15 12 9 8 3 2 1 1 3 3 3 3 3 3 3 3 3 3 3 3 2 2 2 2 3 3 4 7 9 8 7 7 7 7 7 7 6 6 6 6 7 7 7 7 9 9 9 9 8 10 10 10 12 12 10 10 11 15 17 19 24 29 32 34 34 33 32 29 22 13 6 3 3 4 5 6 7 7 8 10 13 15 16 18 21 22
12 13 12 10 9 6 2 1 1 2 3 3 3 3 3 3 3 3 3 3 3 2 2 2 3 5 6 7 8 10 8 6 7 6 7 7 7 7 7 7 7 7 7 6 6 6 7 8 8 9 10 10 11 12 13 14 14 14 15 15 16 22 28 30 30 32 33 31 27 21 12 5 3 4 4 5 5 5 6 8 9 10 12 14 15 18 20 22
12 12 11 9 7 4 2 2 2 3 3 3 3 3 3 3 3 3 3 3 3 3 3 5 6 7 8 7 10 13 9 6 7 7 6 6 6 7 6 7 7 7 6 4 4 5 5 7 8 9 10 11 12 12 12 13 13 14 16 18 21 24 27 25 23 22 21 17 11 7 5 4 4 5 5 5 5 5 7 8 10 12 13 15 17 19 21 23
11 11 9 8 6 3 2 2 3 4 3 3 3 4 3 3 3 4 5 5 5 5 6 7 8 7 7 6 8 12 11 9 7 5 4 4 5 5 5 5 5 5 3 2 2 3 4 6 8 8 9 9 9 9 8 9 9 10 12 15 17 17 18 15 10 8 7 5 4 5 5 5 5 5 5 5 5 7 8 8 11 14 16 18 21 24 26 27
8 9 8 7 5 2 2 3 4 3 3 4 3 3 3 4 5 7 8 8 7 7 7 7 7 7 7 8 7 7 8 7 4 3 2 3 3 3 3 3 3 2 1 2 2 2 3 4 5 6 6 4 5 5 5 6 5 6 7 8 8 7 7 6 4 5 6 6 6 6 5 5 5 4 5 5 6 8 9 10 13 17 19 23 26 30 31 32
6 7 6 5 3 2 3 3 4 3 4 4 3 4 5 6 7 8 8 8 8 7 7 7 8 8 8 8 5 4 4 3 2 2 2 2 3 2 2 1 1 2 1 2 2 3 3 3 4 4 4 3 3 3 3 3 3 4 4 5 4 3 4 4 5 9 11 11 9 9 9 9 8 7 7 6 7 8 9 10 13 16 21 26 30 33 34 35
7 6 3 5 3 2 3 3 4 3 4 3 4 5 7 8 7 8 8 8 7 7 8 8 8 8 7 6 4 3 2 2 2 2 3 2 2 2 2 2 2 2 2 2 2 3 3 3 4 4 5 3 2 3 3 4 4 3 3 3 4 4 6 8 10 12 15 17 14 12 13 13 11 9 7 6 8 9 8 9 11 14 17 24 32 36 37 34
16 9 3 4 2 2 2 3 4 3 4 4 6 7 7 8 7 8 8 7 8 8 8 7 7 6 5 4 3 3 2 3 3 3 3 2 2 2 2 2 2 2 2 2 2 3 3 3 4 4 4 3 3 3 3 5 6 4 3 5 6 7 9 11 14 15 18 16 11 11 12 12 10 7 6 8 10 8 7 8 9 11 14 20 30 39 40 33
27 14 4 3 2 2 3 3 4 3 5 6 8 8 8 8 8 8 7 8 8 8 8 6 5 3 3 3 3 3 3 3 3 3 3 2 3 2 3 3 2 3 2 2 3 2 3 3 4 4 4 3 3 4 4 5 5 5 5 7 8 10 10 10 11 13 12 8 7 10 10 10 9 7 7 9 9 7 7 8 8 10 12 16 25 38 43 37
31 15 4 3 2 2 3 4 4 5 7 8 8 8 8 8 8 8 7 7 6 7 7 4 3 2 2 2 2 3 3 3 3 3 3 3 3 3 3 3 3 3 3 3 3 3 3 3 3 5 5 5 5 5 6 6 7 7 8 9 11 12 13 12 11 9 7 6 9 10 9 11 9 6 8 9 8 7 8 9 9 11 13 16 22 34 45 44
28 15 4 3 3 3 4 4 5 7 8 9 8 8 8 8 8 8 7 6 5 4 4 3 2 2 2 2 2 3 3 4 3 3 3 3 3 3 3 3 3 3 3 4 3 3 4 3 4 4 6 6 6 7 8 9 10 11 10 11 13 14 17 15 12 8 6 8 10 11 11 10 8 6 8 9 8 9 9 10 11 13 15 18 23 33 45 50
26 17 6 2 3 4 4 5 7 8 9 9 9 9 8 8 7 5 5 5 4 3 3 3 2 2 3 3 3 4 4 4 3 3 3 3 3 3 4 3 3 4 4 4 4 4 4 4 4 4 5 6 6 8 9 11 13 14 13 13 14 16 17 13 8 6 6 8 9 12 13 8 7 8 8 9 10 10 10 10 12 15 18 22 28 36 47 55
24 17 6 2 4 4 5 7 9 8 8 9 9 9 8 6 6 4 3 3 3 3 3 3 2 3 3 3 4 4 4 4 3 3 3 4 4 3 4 4 4 5 5 5 5 5 5 5 5 5 5 5 7 9 10 11 14 17 15 15 14 13 12 8 6 6 6 9 9 12 14 8 7 9 9 10 10 9 10 11 13 16 19 24 31 41 52 61
16 10 3 3 4 5 8 8 9 8 8 9 9 9 6 4 4 4 4 3 3 3 3 4 4 4 4 4 4 4 4 4 4 4 4 4 4 4 4 4 5 5 5 5 5 5 5 5 5 5 5 5 7 8 10 11 14 18 16 13 11 8 7 6 7 8 8 11 11 14 15 9 8 9 9 10 10 10 11 12 14 16 20 25 35 49 61 67
8 4 3 5 6 7 9 9 9 9 9 9 9 8 6 4 3 4 5 4 4 3 4 4 4 5 5 4 4 4 4 4 4 4 4 4 4 5 5 5 5 5 5 5 5 6 6 6 6 6 6 6 6 6 8 10 13 17 16 12 8 6 6 6 7 8 10 13 13 16 16 10 8 9 9 10 10 11 11 12 14 17 21 29 42 58 68 72
3 4 5 6 8 9 9 9 7 6 6 8 8 8 6 4 3 4 4 5 6 7 7 7 7 7 5 4 4 4 4 4 4 4 4 5 5 5 5 6 5 5 6 5 6 6 6 7 6 6 6 6 6 5 6 7 9 11 11 9 6 6 7 7 7 8 11 14 14 15 13 10 9 9 10 10 11 11 11 12 15 19 27 38 51 65 74 79
3 5 6 7 9 9 9 7 5 4 4 6 6 5 4 4 4 4 4 5 6 8 9 10 10 7 4 4 4 4 4 4 4 5 5 5 5 5 6 6 6 6 6 6 7 7 7 7 6 7 7 6 6 6 6 6 6 7 7 6 6 7 7 7 7 8 10 11 12 11 10 10 10 10 11 11 11 11 11 13 17 25 38 50 61 71 80 84
5 6 7 9 10 8 7 5 4 4 4 4 4 4 4 4 4 4 4 5 4 5 5 6 6 5 4 4 5 5 6 5 5 6 6 6 6 6 6 6 6 6 6 7 7 7 7 7 7 7 7 6 6 6 6 6 6 7 7 7 8 8 8 8 8 9 9 10 10 10 11 11 11 11 11 12 12 12 12 13 17 30 45 58 68 78 84 87
6 7 9 10 8 7 6 5 5 5 5 5 5 5 4 4 4 4 4 4 4 4 4 5 5 5 6 5 6 8 8 6 6 6 6 6 6 6 7 7 7 7 7 7 7 8 8 8 8 7 7 7 7 7 7 7 7 8 8 9 9 9 10 10 9 9 10 10 10 11 13 12 11 12 12 13 14 12 13 14 18 33 49 62 75 83 87 88
7 9 11 9 7 6 5 5 5 5 5 5 5 5 4 5 5 5 5 4 4 6 6 6 6 6 6 6 7 9 9 7 7 7 6 6 7 7 7 7 8 8 8 8 8 8 9 9 9 8 8 8 8 8 8 8 9 9 10 11 11 12 11 10 11 10 10 11 11 13 14 13 12 13 13 14 15 14 15 16 23 38 54 69 81 87 88 89
9 10 10 8 6 5 5 6 6 6 6 5 5 5 4 5 5 5 5 5 5 6 7 7 7 8 7 6 9 10 9 8 8 7 7 7 8 7 8 8 9 9 9 9 8 9 11 11 11 11 10 9 9 9 9 10 11 11 12 13 13 13 12 12 11 10 11 13 12 13 16 14 13 14 14 15 15 16 19 20 30 49 64 75 84 88 89 91
11 10 8 6 5 5 6 7 7 8 7 6 6 6 7 7 6 6 5 6 6 7 8 9 8 8 8 7 9 10 9 8 8 8 8 8 8 8 9 9 10 10 9 9 9 11 13 12 11 12 11 10 10 10 11 13 13 14 14 15 15 14 14 14 12 11 13 15 15 17 18 15 15 16 16 19 20 20 25 27 39 63 77 81 86 89 91 92
10 8 7 6 6 7 7 8 9 9 8 8 9 9 10 11 11 9 7 6 7 8 8 10 9 8 8 8 8 10 9 8 9 9 9 9 9 9 9 10 12 11 11 11 11 12 14 13 12 12 13 12 11 12 14 15 16 16 16 17 16 14 16 15 12 13 12 15 22 24 22 17 18 22 20 20 22 23 28 32 44 69 86 89 90 91 92 92
8 7 8 8 10 10 11 11 12 11 10 10 10 10 11 13 13 14 12 8 7 9 8 9 10 8 8 8 8 10 10 9 10 9 10 10 10 10 10 12 13 12 12 12 12 14 14 13 13 13 14 13 12 14 16 17 18 17 16 17 17 16 16 14 13 15 14 19 26 28 33 29 18 20 20 17 19 23 29 37 53 76 89 91 92 91 92 92
8 11 13 13 13 13 13 13 13 13 12 10 9 9 11 13 14 15 17 12 8 9 9 8 10 9 8 9 8 10 10 10 10 11 11 11 11 11 11 13 15 14 13 12 14 16 15 15 14 14 14 13 13 16 18 19 19 19 17 17 18 16 16 15 15 19 19 21 22 21 36 39 22 17 20 19 21 25 33 46 65 83 89 90 91 91 92 93
12 15 14 14 13 13 13 13 13 13 12 11 11 10 10 12 13 15 18 16 10 9 11 9 9 9 8 9 9 10 10 11 11 12 12 12 12 12 13 15 16 14 14 14 15 16 16 16 15 14 14 13 14 17 18 19 21 20 18 17 18 16 16 16 16 20 19 18 21 17 26 42 37 26 22 21 24 30 41 55 72 84 88 89 91 92 95 97
15 16 14 13 12 12 12 12 13 13 14 13 13 12 10 11 14 15 17 16 11 10 11 10 9 10 9 9 10 10 12 12 12 12 13 13 14 14 15 17 17 14 15 16 16 17 17 16 15 15 15 14 16 17 16 18 20 19 17 19 19 17 18 17 17 19 16 22 29 20 24 45 45 29 24 25 26 33 45 59 73 82 86 90 93 95 97 96
15 15 14 14 13 11 12 12 13 13 14 14 13 12 8 9 17 17 11 12 11 9 10 10 9 10 10 10 11 11 12 13 13 14 14 14 15 15 16 18 17 15 16 17 18 18 17 17 17 16 16 17 16 16 16 18 18 18 19 19 18 18 18 17 20 19 20 37 41 24 25 43 39 25 26 29 29 35 46 59 74 83 87 94 96 95 94 90
15 15 15 15 13 12 12 11 12 12 12 13 14 13 8 7 16 15 8 10 13 10 9 10 9 10 10 11 12 12 13 14 14 15 15 15 16 16 17 18 17 15 16 17 17 18 17 17 18 17 18 19 17 17 18 18 19 19 20 21 18 19 17 18 22 20 28 45 40 22 23 37 40 31 25 28 32 38 48 61 76 87 93 97 96 91 88 84
13 14 14 13 11 12 11 9 9 9 10 12 13 14 12 8 10 12 11 13 14 10 10 10 10 11 11 11 13 13 14 14 14 15 15 16 17 16 16 17 17 17 17 17 16 18 18 19 20 19 19 19 18 19 19 19 21 21 23 23 20 19 19 22 25 24 32 38 28 20 23 34 42 36 26 29 34 37 49 64 77 90 96 94 90 86 83 83
12 12 12 11 11 10 9 6 6 6 7 9 11 14 15 10 8 12 13 13 10 10 11 11 10 12 12 13 14 14 14 15 15 16 16 16 18 17 17 20 20 20 20 18 17 17 18 20 22 21 20 20 20 20 20 21 22 23 24 23 26 32 34 35 35 33 36 32 24 25 29 34 38 34 33 37 37 41 52 66 79 89 91 87 85 85 84 82
11 11 10 10 9 7 6 5 5 5 6 7 9 11 10 8 10 12 11 10 9 11 11 11 11 12 13 14 16 15 15 16 17 17 17 18 20 19 20 22 23 23 23 22 20 19 19 20 21 21 21 20 21 21 22 23 23 24 25 25 32 43 47 49 46 42 41 32 26 29 36 39 34 34 40 42 44 52 60 70 79 84 85 85 85 84 81 77
11 10 8 7 6 4 4 4 4 4 5 6 7 8 6 7 10 11 10 9 10 11 12 12 12 13 15 16 17 17 16 17 18 18 19 19 20 20 21 23 24 25 25 24 23 23 25 24 21 22 22 22 23 24 25 26 26 25 26 28 33 36 41 49 48 45 44 40 35 36 43 42 35 39 46 44 47 56 62 70 78 81 84 83 81 78 76 75
9 7 5 5 4 4 4 4 4 4 4 5 6 6 7 9 10 10 10 10 11 12 13 14 13 15 16 17 18 18 17 18 19 19 20 20 21 22 23 24 25 25 25 26 26 26 27 25 22 23 24 24 25 25 27 27 27 26 25 27 33 34 36 43 44 39 42 51 50 42 40 39 38 43 47 49 55 59 64 72 78 81 79 75 75 74 75 79
5 5 4 4 4 4 3 3 4 4 5 6 6 6 8 10 11 11 11 11 11 12 14 14 15 16 17 18 19 19 19 19 20 20 20 21 22 23 24 25 26 26 26 27 28 29 28 24 22 24 25 25 27 27 26 26 26 27 27 27 30 35 38 45 45 37 42 57 52 37 36 37 38 45 47 50 59 63 69 76 77 76 72 70 74 76 79 83
4 4 4 4 4 3 3 4 5 5 6 6 7 8 9 9 10 10 11 11 12 13 14 14 15 17 18 19 19 20 20 20 20 21 21 21 23 25 26 26 26 27 27 27 28 31 32 26 21 24 26 25 26 26 24 26 26 27 29 29 29 35 40 44 49 47 51 59 49 36 38 39 40 47 50 51 58 64 71 74 75 75 73 74 76 78 82 85
4 4 3 4 4 4 4 4 5 7 7 7 8 9 10 10 10 10 11 12 12 14 15 15 16 17 18 19 20 20 20 20 21 22 23 23 24 26 27 27 27 27 27 28 28 29 34 33 25 24 27 26 26 27 26 26 27 28 30 30 33 42 45 44 49 56 61 66 57 43 41 42 42 45 49 52 55 60 66 71 76 77 75 75 77 79 83 85
4 4 4 4 4 5 6 5 6 7 8 8 9 10 11 11 12 12 12 12 13 15 16 16 17 18 19 20 20 21 21 22 23 23 24 25 25 27 29 27 27 28 26 27 29 29 34 39 33 25 27 27 25 27 27 27 29 30 31 32 35 42 44 43 47 52 60 68 64 55 50 47 47 46 49 56 60 66 74 77 77 75 76 80 84 88 93 93
4 5 5 6 6 7 7 7 7 8 8 9 10 11 12 12 13 13 13 13 14 15 16 17 18 19 20 20 21 22 22 23 24 25 26 26 27 28 29 28 27 28 27 26 29 30 34 42 40 28 26 28 28 29 29 30 31 31 34 38 40 41 43 48 50 47 53 63 64 66 63 52 49 54 57 62 70 78 84 81 79 82 88 93 97 100 101 97
6 7 7 7 7 8 8 8 9 9 10 10 11 11 12 13 14 14 14 14 14 15 16 17 18 19 20 21 22 22 22 23 24 26 27 27 28 29 29 29 28 27 27 27 28 30 35 42 42 32 28 28 28 31 32 33 34 37 40 41 44 47 48 56 60 48 46 54 59 70 74 60 53 58 62 68 76 83 85 85 88 94 99 102 101 99 94 90
7 7 8 8 8 8 8 8 9 9 10 10 11 12 12 13 14 14 15 14 15 16 16 17 18 19 20 21 22 23 23 23 25 26 28 28 29 29 28 29 28 27 28 28 28 30 33 39 40 35 31 31 32 35 36 37 38 39 42 42 45 48 48 57 66 56 54 61 60 66 75 63 54 60 68 75 82 86 89 91 96 101 101 98 93 87 83 81
8 8 8 8 8 8 8 8 8 8 9 10 11 12 12 14 14 14 15 14 15 16 16 18 18 20 21 22 23 24 23 23 25 26 28 28 28 28 29 28 28 28 29 29 30 30 31 35 36 34 30 29 32 35 35 38 41 41 42 42 44 47 47 53 57 56 65 71 64 67 72 59 53 63 73 79 84 86 87 91 98 101 94 87 83 80 79 78
8 7 7 7 7 7 7 8 8 8 9 10 11 12 12 13 14 14 15 15 15 16 17 19 19 21 22 22 23 25 24 24 25 26 27 28 28 28 28 28 28 29 30 30 30 31 32 33 36 42 44 41 39 40 39 40 44 45 44 43 45 47 48 49 49 54 66 66 59 68 71 58 58 68 75 81 83 84 88 94 97 91 84 83 86 84 79 79
6 6 6 6 7 7 7 8 8 8 8 9 10 11 12 13 13 14 15 15 15 16 17 19 21 22 22 23 24 25 24 25 25 26 27 28 27 27 28 28 29 29 30 31 32 33 34 33 38 48 57 58 55 51 46 45 47 47 45 46 48 47 47 49 51 58 67 64 61 68 71 66 69 75 79 84 89 92 96 95 88 82 85 92 94 86 79 81
5 5 5 5 6 7 6 6 8 8 8 8 9 10 11 12 13 13 14 15 15 16 18 19 21 22 22 23 23 24 24 25 25 25 27 27 27 28 28 28 29 30 31 32 33 35 35 35 37 42 47 51 51 48 46 48 50 49 48 47 47 48 50 53 55 60 65 68 69 70 74 79 82 84 89 94 98 99 95 88 84 88 96 100 94 83 79 87
5 5 5 5 5 6 6 6 7 7 7 7 8 9 11 12 12 13 14 14 15 16 18 20 21 22 22 22 22 23 23 23 24 25 25 26 27 28 28 29 30 31 32 33 35 36 37 37 39 42 44 44 45 46 46 49 51 51 52 50 48 53 56 56 59 63 67 76 80 77 80 89 92 93 99 101 98 95 90 86 90 99 102 97 90 82 82 89
5 5 5 5 5 5 6 6 6 7 7 7 7 9 10 11 12 13 13 14 15 17 19 21 21 22 22 22 22 22 22 22 23 24 25 26 27 27 28 30 31 32 33 35 36 37 39 40 42 45 45 43 44 46 47 51 53 52 50 51 54 60 61 61 65 71 78 86 88 86 91 98 98 98 101 99 95 93 89 87 96 103 93 83 86 88 86 89
4 3 3 4 4 5 5 5 6 6 7 7 7 8 10 11 12 13 13 14 16 18 20 21 21 22 22 23 24 23 23 23 24 24 25 26 27 28 29 30 32 33 34 35 37 39 41 43 45 49 47 42 43 48 50 53 53 49 49 56 62 63 62 63 67 75 85 90 90 94 99 98 98 101 100 95 92 87 84 87 95 92 77 77 92 96 92 95
3 3 3 4 3 4 5 5 5 6 6 7 7 8 10 11 12 13 13 14 16 19 21 21 22 22 22 23 24 24 24 25 25 25 26 27 28 29 30 31 32 33 34 36 38 41 44 45 47 52 51 43 42 49 52 52 51 48 51 58 63 64 64 67 73 82 93 96 96 99 100 98 101 102 94 88 85 81 85 93 86 69 68 85 96 96 96 100
3 3 3 3 3 4 4 5 5 5 6 6 7 9 10 11 12 13 13 15 18 20 21 21 22 22 22 23 23 23 24 24 25 26 26 27 29 30 31 31 32 34 36 38 40 42 46 47 47 54 58 49 44 51 52 47 45 48 54 60 64 67 71 76 81 89 97 101 100 99 99 101 101 95 87 84 84 87 95 95 78 67 78 89 91 97 102 98
2 2 3 3 3 3 4 4 5 5 6 6 7 9 11 11 12 12 13 16 19 20 21 21 22 22 22 23 23 23 24 24 25 26 26 28 28 29 31 32 32 36 38 40 43 44 47 49 48 55 62 54 47 55 57 48 49 58 64 67 67 69 74 80 83 87 92 98 101 101 101 100 94 88 87 89 95 104 101 88 81 89 98 94 92 99 93 78
Wind_Speed
10 11 8 5 4 3 4 4 5 5 4 4 4 4 5 5 6 6 6 6 6 6 6 6 5 5 4 4 4 5 7 8 8 8 9 8 8 7 6 5 5 5 5 5 5 6 6 6 6 5 6 8 8 9 9 11 12 13 14 16 17 16 16 16 14 14 15 15 16 18 19 21 22 21 20 19 17 15 15 14 15 15 15 14 14 14 14 15
9 9 8 6 4 3 4 4 4 4 4 3 4 4 5 6 6 6 6 5 5 6 6 6 5 5 5 5 5 6 8 7 7 9 8 7 6 6 5 5 5 5 5 5 6 6 6 6 6 5 7 8 9 9 10 10 11 12 13 16 16 15 15 15 15 16 16 16 18 20 21 22 20 19 18 18 17 15 15 14 15 16 15 14 14 14 15 16
9 8 7 6 4 4 3 3 4 4 3 4 4 5 6 7 7 6 5 5 5 5 5 5 6 6 6 7 7 6 6 6 7 8 6 6 6 5 5 5 5 5 5 6 6 6 6 6 6 6 7 9 9 10 11 11 11 12 13 15 15 15 14 15 16 18 18 18 19 20 20 19 18 17 17 17 17 16 16 15 15 16 15 14 14 14 15 17
9 8 7 5 4 3 3 3 4 3 4 4 5 6 7 7 6 6 5 6 6 5 6 6 7 8 8 9 7 4 5 7 7 6 6 6 6 5 5 5 6 5 5 6 6 6 5 5 6 6 8 9 11 12 12 12 11 11 13 14 15 15 16 16 17 17 17 16 16 16 16 16 17 17 17 16 17 17 16 16 17 16 15 15 14 14 15 17
9 8 7 5 4 3 3 4 3 3 4 5 6 7 7 7 6 6 6 7 7 7 8 8 9 9 10 10 8 5 5 5 6 6 7 7 7 6 6 6 6 6 6 6 6 5 4 4 5 6 7 9 11 11 10 9 10 11 12 13 14 15 16 16 15 13 12 13 14 14 14 14 15 17 17 17 18 17 17 17 17 17 17 16 15 15 16 18
9 8 7 5 4 4 4 4 3 4 5 6 7 7 7 7 7 8 8 8 9 9 10 10 10 10 10 9 7 8 7 5 7 8 9 9 7 7 6 7 7 6 6 6 6 5 5 4 5 6 7 7 7 6 6 7 9 10 11 12 12 13 13 13 13 11 11 13 14 14 14 14 15 16 18 18 18 17 17 17 17 18 18 18 17 17 18 19
10 8 7 5 4 4 4 3 3 4 6 7 7 7 7 8 8 9 10 10 10 10 10 10 10 10 10 8 7 10 9 7 8 9 10 9 8 7 8 8 7 7 7 7 7 6 6 5 5 5 6 7 6 6 5 6 8 10 10 10 11 12 12 12 14 13 13 15 15 16 16 15 16 18 18 18 18 18 17 18 18 19 19 20 20 19 20 21
10 8 7 6 5 5 4 2 3 4 6 6 7 7 8 9 10 10 11 11 11 10 10 9 10 9 9 9 10 11 9 8 9 10 10 9 8 8 8 8 7 7 7 7 6 6 5 4 4 5 6 7 7 7 8 8 9 10 10 10 11 12 12 14 16 17 17 18 18 19 18 19 20 21 21 20 20 21 21 21 20 20 20 21 22 22 22 22
10 8 6 6 5 5 3 2 3 4 6 6 7 8 9 10 11 11 11 11 11 10 10 10 10 9 9 10 10 10 8 8 9 9 9 8 8 8 7 8 8 7 7 6 6 5 5 4 4 6 6 6 7 8 9 9 9 9 10 10 11 12 14 15 18 19 20 20 21 21 22 23 22 23 23 21 22 24 25 23 22 22 22 22 23 24 24 24
9 7 6 6 5 4 3 3 3 5 6 7 8 9 10 11 11 12 11 11 10 10 10 11 10 8 8 9 9 8 8 8 9 9 8 7 7 7 7 8 7 7 7 6 5 5 4 5 5 7 7 7 8 9 10 10 9 9 11 12 13 14 15 16 18 20 21 21 22 23 25 26 25 26 25 23 25 26 26 25 26 26 25 24 24 25 26 25
8 6 6 5 4 4 3 3 4 5 7 8 9 9 10 11 11 11 11 11 10 9 9 10 9 8 9 10 10 8 7 8 8 8 7 6 6 6 6 6 6 6 7 7 7 6 6 6 6 7 7 8 9 10 11 12 11 11 13 15 16 15 16 18 19 21 22 22 22 24 27 29 28 28 26 25 27 27 28 29 30 29 27 26 25 27 28 27
7 6 5 4 4 4 3 4 5 6 8 9 9 9 10 10 11 10 10 10 10 9 9 10 10 10 10 10 9 7 6 7 7 6 5 5 6 6 6 6 6 6 7 8 8 8 8 8 8 8 8 9 10 11 12 12 12 13 14 16 17 17 19 19 19 21 22 22 22 23 29 33 30 28 26 26 29 29 31 33 32 31 29 27 27 28 29 28
7 6 4 3 4 4 3 4 6 8 9 9 9 10 10 10 10 11 11 10 10 10 10 10 9 9 9 8 7 6 7 7 6 6 5 5 6 6 7 8 8 8 9 8 8 8 8 9 9 9 9 9 11 12 12 13 13 13 15 16 17 18 20 20 19 21 22 22 22 21 30 38 31 26 26 28 32 33 35 35 34 32 30 28 27 28 30 29
8 6 4 4 4 4 4 6 8 9 9 9 9 10 10 10 10 11 11 11 11 11 10 9 7 7 7 5 6 7 7 7 6 6 6 6 7 9 9 9 10 10 10 11 11 10 10 10 9 9 11 11 11 12 13 14 14 15 16 16 17 19 20 20 20 22 23 22 23 22 30 40 34 28 30 32 36 37 38 36 34 33 31 29 28 30 31 29
8 6 5 5 4 5 7 9 9 9 9 9 10 10 11 11 10 10 11 11 11 11 9 8 7 6 4 4 6 7 8 8 7 7 7 8 9 10 11 12 12 12 13 13 13 13 13 12 10 10 11 11 11 12 13 14 15 16 16 16 18 21 22 21 20 22 24 24 26 24 30 40 36 32 33 35 39 41 41 39 36 34 32 31 30 31 31 30
7 6 6 5 6 8 9 9 9 8 9 9 9 10 10 11 11 10 10 9 9 8 7 7 6 5 4 5 7 8 8 8 7 8 9 10 11 12 12 14 15 16 16 15 14 14 13 12 11 11 11 10 11 11 12 14 15 15 16 18 20 22 24 24 21 22 24 25 26 27 33 40 37 33 36 39 42 42 41 39 36 33 31 31 31 30 30 30
7 7 7 7 8 10 10 9 9 8 8 9 9 10 10 10 11 10 9 8 8 7 7 6 6 5 6 8 9 8 8 8 9 10 11 12 12 13 14 15 16 17 16 15 14 13 12 11 10 11 11 11 11 10 12 13 13 14 16 19 21 22 25 27 26 24 24 26 29 31 35 39 37 35 38 42 44 43 42 38 34 31 30 31 31 30 30 29
8 8 7 9 10 10 10 10 10 10 11 12 12 12 11 11 10 9 7 7 8 7 8 8 7 6 8 9 9 9 9 9 11 12 13 13 13 13 14 14 14 15 14 14 13 12 11 10 9 10 11 11 11 11 12 13 14 16 18 21 23 24 26 27 27 26 27 31 33 33 36 39 39 37 39 42 43 43 40 35 32 31 30 30 31 31 29 28
9 9 9 11 11 11 11 11 13 13 14 14 13 12 12 12 10 10 10 9 8 9 10 10 10 9 10 10 10 11 10 9 12 14 14 14 13 13 13 12 13 14 13 13 13 12 12 10 10 11 12 12 13 14 13 14 16 18 20 23 24 27 30 28 26 27 30 35 37 36 38 42 42 41 40 39 38 37 35 34 33 31 30 31 31 30 29 30
9 10 11 12 12 11 12 13 14 14 14 13 11 11 11 11 10 11 11 9 10 12 13 13 13 13 13 12 12 11 9 9 12 15 14 13 13 12 12 12 13 13 13 14 14 14 13 11 11 13 14 14 15 15 15 16 17 19 23 25 26 29 33 31 28 28 30 37 44 41 40 44 45 43 38 32 31 32 32 34 34 31 31 33 31 29 30 31
10 12 13 13 13 14 14 15 14 14 13 13 12 11 11 10 9 10 9 9 13 15 15 16 15 14 13 12 10 9 10 12 13 14 12 11 11 12 12 12 13 13 14 16 15 15 13 11 13 16 16 16 18 17 18 18 20 22 24 26 28 30 34 35 31 31 33 40 47 44 44 48 44 38 32 27 27 28 30 34 32 30 30 32 30 30 31 31
12 13 14 14 15 16 16 16 15 14 13 13 13 11 10 10 11 11 9 12 16 15 14 16 15 13 12 11 8 8 11 10 9 10 10 10 11 12 12 13 15 15 16 17 16 16 14 13 17 19 19 19 19 19 20 21 22 24 25 27 30 31 34 38 35 36 38 41 47 47 45 47 41 34 29 24 24 25 27 30 27 26 29 31 31 31 31 30
13 13 14 15 16 15 15 14 13 12 11 11 11 9 8 9 11 12 12 14 16 14 13 13 13 13 12 11 8 8 10 9 9 10 11 11 13 13 13 14 15 16 17 16 16 17 14 16 21 21 21 21 21 21 21 23 23 24 25 27 30 30 31 37 41 42 41 42 45 43 42 45 38 29 24 19 21 23 23 24 22 23 28 30 31 30 30 31
14 14 15 15 14 13 12 11 9 8 8 6 5 4 4 4 6 9 11 14 15 15 13 13 14 14 13 13 10 7 10 13 13 14 14 14 15 15 15 16 16 17 18 16 16 16 15 19 22 22 22 22 23 22 22 25 25 25 26 26 28 32 32 36 41 44 48 46 36 30 36 43 31 17 20 22 23 26 26 24 22 24 28 29 30 30 31 32
15 16 15 14 13 12 11 9 7 6 4 3 1 0 1 1 1 3 5 10 15 15 14 14 15 16 14 14 12 8 11 15 15 16 16 16 16 16 17 18 17 20 19 17 16 15 17 21 23 23 22 23 23 23 24 25 27 29 27 25 29 35 35 36 40 43 48 40 28 25 25 29 30 23 26 30 29 31 30 25 22 25 29 30 31 32 33 34
17 16 14 13 12 10 9 7 5 4 2 2 1 1 2 1 1 1 1 4 12 15 15 14 14 16 14 14 15 11 11 15 16 17 17 16 17 17 18 18 19 21 19 16 16 16 21 24 23 22 22 23 23 23 24 24 29 32 29 29 33 35 34 38 41 39 39 36 34 33 18 19 38 37 28 28 28 30 27 21 21 24 29 31 32 33 35 35
17 15 13 11 9 8 6 4 3 2 1 1 1 2 3 3 2 2 1 1 9 14 15 15 14 15 15 15 16 14 13 15 16 17 17 17 17 18 19 19 19 21 19 16 17 19 24 24 22 23 22 22 21 21 24 26 29 30 31 33 34 34 37 41 41 35 38 41 40 36 21 17 31 30 22 25 26 25 23 20 20 24 28 31 33 34 35 35
16 13 11 8 6 5 3 2 1 2 2 1 2 3 4 3 2 3 1 2 7 12 13 15 14 14 16 16 16 15 14 16 16 16 18 17 17 19 19 17 19 21 18 17 20 23 25 23 21 20 19 19 20 21 24 26 28 31 33 34 34 36 40 39 36 34 36 35 31 31 21 12 20 22 18 22 25 22 21 20 20 24 28 31 33 34 34 32
15 12 8 5 3 1 2 2 3 3 1 1 2 4 4 3 1 2 3 3 6 10 11 13 14 13 15 15 15 15 15 16 17 18 19 18 19 21 19 17 19 22 20 20 23 24 23 21 17 16 17 20 21 21 23 25 28 32 31 34 37 37 38 35 30 29 28 21 17 21 14 6 18 27 21 19 21 19 20 21 22 26 29 31 32 31 30 29
13 11 7 4 2 3 4 4 4 2 1 1 1 2 5 4 1 1 3 2 6 9 9 11 13 13 12 12 14 14 15 17 17 17 18 18 19 21 19 17 20 22 20 21 22 22 21 18 13 15 19 22 22 21 23 25 27 29 31 38 40 37 38 32 22 18 16 10 7 14 16 8 13 25 25 22 21 20 20 20 24 28 30 30 29 28 28 29
12 10 7 5 4 4 4 4 3 1 1 1 0 1 3 6 4 3 3 2 5 9 9 9 13 13 12 13 15 15 16 18 18 17 18 18 18 21 20 20 24 24 23 26 27 25 23 16 13 18 22 23 23 24 25 25 25 28 34 37 35 35 36 24 13 10 5 7 12 21 25 13 9 20 28 28 29 26 22 21 24 28 28 27 27 28 29 31
10 8 7 5 4 3 2 2 1 1 0 1 1 1 1 3 6 6 4 2 4 8 8 9 12 13 14 16 17 17 17 20 21 20 21 22 22 26 26 28 31 29 27 32 33 31 27 19 16 21 24 24 25 29 31 28 29 33 34 30 22 20 21 12 7 8 5 15 25 25 23 17 17 26 28 27 28 24 21 22 24 26 26 25 26 28 32 36
8 7 5 4 2 1 0 1 1 1 2 2 2 2 2 2 5 7 7 5 5 7 8 9 12 14 15 16 18 19 18 21 22 21 22 22 23 26 27 28 31 27 26 30 32 34 31 22 21 24 25 23 23 30 32 31 35 35 27 23 16 7 6 6 6 6 9 25 35 25 17 17 21 24 23 24 24 20 20 22 23 25 25 25 28 31 37 44
7 5 4 2 1 2 2 1 2 2 2 2 2 2 4 6 6 6 8 8 7 8 8 9 12 14 16 18 20 22 20 21 22 20 20 21 22 24 24 26 28 27 27 26 26 29 23 16 22 27 24 22 23 24 26 32 35 27 20 23 19 8 5 6 6 5 10 26 37 28 13 10 15 21 23 25 24 21 22 23 25 27 26 27 32 38 46 55
6 4 3 2 2 2 1 1 2 2 3 4 3 3 6 7 7 7 8 8 9 10 8 9 12 13 15 18 20 22 20 19 21 19 19 21 22 23 24 26 28 29 29 26 23 24 19 18 24 26 21 20 24 26 27 32 27 19 23 26 20 15 14 15 18 21 19 19 24 21 14 13 18 23 25 23 22 23 24 26 28 29 29 33 39 49 59 63
5 4 3 2 2 2 1 1 2 3 3 5 4 5 8 9 7 7 7 7 9 11 9 9 12 13 15 18 20 21 19 18 20 19 19 21 21 22 23 26 28 29 28 26 23 19 18 25 27 24 21 23 27 29 27 26 21 19 25 26 23 23 21 19 23 28 21 11 13 18 19 21 22 21 24 23 23 26 26 27 30 31 35 43 53 63 67 65
5 4 3 2 2 1 2 2 3 3 4 4 5 8 11 11 9 8 8 8 9 12 12 10 13 16 18 19 19 20 18 18 20 20 20 20 20 20 22 25 28 28 28 27 24 18 19 30 32 25 24 30 31 29 24 20 19 21 23 26 26 23 18 13 13 15 12 7 14 21 23 25 22 17 21 23 23 25 27 30 32 36 46 58 66 68 65 63
4 3 2 2 2 2 2 3 4 6 7 6 8 11 12 11 9 8 8 9 10 12 14 14 14 17 18 19 20 20 19 18 19 20 19 20 20 20 21 25 27 27 28 27 24 22 21 27 31 27 28 33 31 26 24 23 21 19 21 25 24 17 16 16 10 8 9 7 10 22 27 25 20 18 20 25 27 29 32 33 35 46 60 68 68 64 62 62
4 3 3 2 3 3 4 4 4 5 7 6 9 12 12 10 10 9 9 10 10 12 15 15 15 16 17 18 19 20 20 18 19 21 19 20 22 19 19 25 27 26 27 26 23 24 20 17 23 29 33 34 30 25 25 26 23 20 21 25 24 19 20 23 18 13 12 8 8 18 20 11 11 21 27 30 32 31 31 36 46 59 66 65 61 59 59 60
4 4 4 4 4 5 6 6 6 6 8 8 10 13 12 11 11 10 11 11 11 12 14 15 16 16 17 18 19 20 20 17 19 20 19 21 23 20 20 24 26 25 24 24 24 25 21 14 21 33 38 34 28 23 23 23 22 22 23 25 26 26 28 28 25 19 14 9 6 10 12 11 20 31 33 32 29 27 35 50 60 63 59 56 55 56 57 58
5 5 6 6 7 7 7 8 9 9 10 11 12 13 12 12 11 11 12 12 13 13 14 15 16 16 17 18 19 20 20 16 17 19 19 22 22 20 21 24 25 24 21 23 25 25 23 18 24 35 40 35 29 21 17 17 18 21 26 29 30 31 30 21 15 19 20 16 14 12 13 22 32 32 27 26 27 35 51 59 59 55 53 55 59 59 59 59
7 7 8 9 8 9 9 9 10 10 10 12 13 12 12 12 12 12 12 12 13 13 14 15 15 17 17 18 19 20 20 17 16 19 20 21 21 20 22 23 24 22 21 23 24 26 27 23 26 35 37 34 29 23 20 21 25 28 31 35 36 34 31 19 13 23 28 25 27 23 15 22 29 25 25 30 38 50 58 55 52 52 55 61 64 62 61 61
8 8 10 9 9 10 10 8 9 10 11 12 13 12 12 12 12 13 12 12 13 13 13 14 15 16 17 18 19 20 21 17 15 19 20 19 20 20 21 22 22 20 21 22 23 26 25 21 28 39 41 40 35 30 30 30 33 36 36 38 38 36 36 30 26 32 29 22 23 18 12 20 27 28 36 45 51 58 58 53 52 56 62 66 64 62 62 60
10 10 11 10 9 10 10 9 9 11 12 13 13 12 12 12 12 12 13 12 12 12 13 14 14 15 17 18 18 19 21 18 15 18 19 18 19 20 20 22 20 19 22 23 24 26 21 19 26 30 29 33 34 31 34 38 38 38 38 39 39 39 38 34 35 35 24 21 22 13 14 26 33 39 50 54 57 60 55 52 56 62 67 64 61 62 61 55
10 10 11 11 10 9 9 11 11 11 13 14 13 12 11 11 12 12 12 12 12 12 13 14 15 16 17 17 18 19 20 18 17 17 18 19 19 20 21 20 18 20 23 23 24 25 23 23 23 16 10 13 18 21 31 41 42 40 41 41 37 36 34 33 36 30 21 26 30 19 22 38 48 53 57 56 55 54 52 56 62 66 65 60 60 61 56 51
8 9 10 11 11 8 8 12 12 11 12 13 12 12 11 10 11 11 11 11 12 12 13 15 16 16 17 18 18 18 19 18 17 17 18 19 19 20 21 18 17 21 24 24 25 26 25 26 24 20 18 19 24 29 31 35 38 40 44 41 33 30 30 30 30 26 25 32 35 29 34 48 58 58 55 51 50 51 58 66 68 65 61 60 62 57 50 48
6 6 7 8 8 8 8 11 12 11 11 11 11 12 11 10 10 10 10 10 11 13 13 15 16 16 17 19 18 18 18 17 16 17 18 17 18 19 20 17 16 21 25 25 27 27 28 28 26 26 29 30 32 33 31 30 34 39 43 38 30 29 30 26 22 25 28 27 29 38 47 52 57 55 48 47 52 58 67 69 65 62 61 61 60 53 48 50
6 6 6 6 7 8 8 10 11 11 10 10 10 11 11 10 9 9 10 10 11 13 13 14 16 16 17 18 17 18 18 16 16 17 17 17 17 18 18 16 16 22 26 26 29 30 29 29 29 31 35 34 31 30 31 32 36 39 37 30 27 29 29 25 24 30 32 25 31 48 55 52 52 49 45 51 59 65 68 66 63 62 62 60 56 51 51 55
7 7 7 7 7 8 9 9 10 10 10 9 9 10 11 10 9 9 9 10 11 12 13 14 15 16 17 17 17 18 18 17 18 18 18 18 18 20 19 16 17 24 27 27 30 30 28 30 31 32 38 38 32 31 34 37 41 37 25 20 25 29 28 27 31 36 37 38 45 53 54 50 47 46 51 59 64 66 67 65 64 64 62 58 52 51 56 58
7 7 7 7 6 7 8 8 8 9 9 8 9 9 9 9 9 8 9 10 11 12 13 14 15 16 16 17 17 18 18 18 18 19 19 18 18 20 19 16 19 24 26 28 29 29 29 32 32 33 39 39 36 36 39 40 38 25 17 24 33 32 31 33 36 41 45 50 54 52 49 47 44 49 60 65 66 67 67 64 64 63 59 54 52 55 58 57
8 7 7 6 6 6 7 7 8 8 8 8 8 8 8 9 8 8 8 10 11 12 13 14 15 15 15 16 17 17 17 17 17 18 18 17 19 20 19 18 21 23 25 27 27 28 31 32 34 34 36 39 39 40 43 43 30 16 21 36 37 32 34 37 40 45 49 52 53 50 45 44 49 58 66 68 67 66 63 63 63 59 54 52 55 57 56 55
8 7 7 7 5 5 6 6 7 7 7 7 8 8 8 8 8 8 9 10 11 12 13 13 15 15 15 16 16 17 17 17 16 16 16 16 19 20 18 18 20 23 26 26 26 29 31 32 35 33 33 40 41 39 44 42 23 14 23 31 30 32 37 41 47 52 53 51 49 43 39 44 56 65 67 67 65 60 59 61 59 53 50 53 56 55 55 56
Wind_Direction
150 148 151 150 133 101 72 66 69 77 90 80 52 35 25 21 17 12 8 6 10 13 19 25 28 22 16 17 17 17 15 13 18 18 15 14 9 3 4 9 10 5 357 346 326 311 298 282 272 262 253 248 242 238 239 240 240 241 241 240 243 247 250 254 258 262 265 271 275 280 287 289 292 292 292 292 293 293 285 277 272 267 262 257 254 251 247 245
151 150 150 147 127 85 69 68 75 87 88 64 38 28 22 21 16 12 6 4 11 18 25 32 34 26 14 9 13 26 23 23 34 33 27 24 23 19 20 21 26 25 13 2 348 339 326 302 289 274 260 253 248 245 246 247 245 244 246 247 249 253 255 254 257 262 266 273 279 285 289 290 293 294 293 292 291 288 282 278 272 264 258 253 251 248 245 243
147 146 144 137 112 85 74 75 89 91 71 42 29 23 21 19 14 9 6 11 19 28 36 41 46 41 33 24 22 36 41 46 49 41 39 40 37 26 23 27 27 29 22 10 357 349 339 321 308 286 265 256 249 250 251 251 252 251 252 254 253 253 254 255 259 264 269 276 280 284 286 288 290 290 288 288 288 287 284 279 270 261 254 252 252 250 248 247
145 143 137 124 105 92 86 94 98 78 49 34 25 20 19 16 13 15 20 30 39 47 54 60 64 60 58 47 40 48 45 46 48 42 46 46 38 28 25 29 25 24 20 11 1 352 343 329 314 292 271 260 252 251 253 252 255 258 258 256 254 255 256 262 265 266 270 275 279 281 282 285 289 288 288 287 286 287 284 279 271 263 257 256 256 255 254 254
144 141 131 121 110 105 109 112 95 59 42 30 20 17 18 19 24 36 45 53 60 66 68 71 70 69 67 57 51 55 38 39 44 42 50 48 40 34 32 36 30 16 11 17 11 353 346 339 319 306 287 268 256 252 254 256 260 264 264 260 260 263 264 267 268 268 274 278 280 280 281 286 289 290 291 290 289 289 285 277 271 265 261 260 261 262 262 261
142 136 128 125 122 126 130 121 81 49 36 23 18 20 26 34 46 59 65 68 70 71 71 71 72 71 70 62 58 56 45 47 50 50 56 53 47 45 45 43 33 20 15 18 12 354 352 352 337 323 302 284 273 266 265 267 267 267 270 269 267 269 268 267 268 272 279 280 280 280 282 285 288 290 290 292 294 294 288 279 272 269 265 263 264 266 266 264
138 130 128 131 136 142 141 119 63 40 27 19 20 32 47 57 63 70 73 74 72 69 68 70 73 72 72 68 63 58 51 56 62 61 61 57 54 49 47 43 36 30 23 18 13 0 356 357 346 327 305 297 293 286 278 269 269 270 273 274 273 271 269 270 273 275 277 280 281 279 281 285 287 289 288 293 299 299 297 289 281 280 274 269 268 268 266 264
129 124 130 139 147 150 144 109 53 32 19 21 37 54 68 73 73 75 76 76 74 70 68 68 66 66 69 67 65 64 59 64 67 65 62 59 53 47 44 41 34 29 22 18 12 2 0 358 339 318 301 297 293 285 280 278 279 277 275 272 270 270 272 276 279 279 279 283 285 283 285 288 290 292 291 296 301 300 301 297 291 288 283 275 271 269 267 263
124 122 131 145 154 153 141 94 46 25 23 39 62 74 78 77 76 76 77 77 76 75 71 66 57 54 64 70 73 71 68 69 66 64 62 56 53 49 44 37 24 16 15 12 6 359 356 342 321 310 300 296 296 289 283 286 286 280 273 268 269 275 280 282 283 283 284 286 288 290 292 293 295 296 297 302 301 299 300 299 296 293 290 283 275 270 267 265
126 125 133 150 157 144 118 77 41 32 45 66 79 83 82 80 78 77 76 75 73 72 70 65 57 58 78 84 82 75 69 69 65 64 63 59 57 47 42 36 16 5 4 3 359 350 338 325 316 314 304 297 299 293 285 285 283 276 270 272 277 281 286 288 287 287 290 293 294 296 296 297 298 298 305 308 302 300 300 298 297 296 293 287 280 273 270 268
132 130 139 157 148 119 93 62 47 54 71 82 86 87 86 85 83 77 73 71 67 68 71 72 71 78 87 83 79 75 72 70 66 66 65 59 52 36 30 23 6 1 357 354 349 338 324 313 310 307 297 294 298 294 291 291 290 286 280 283 288 288 290 292 292 294 296 298 298 299 298 296 297 303 312 308 302 303 301 299 299 297 294 289 283 277 273 272
140 141 151 154 129 102 78 62 64 76 86 90 91 89 88 86 82 75 70 68 69 77 83 82 83 83 80 79 81 79 72 67 63 64 56 44 39 22 9 358 351 353 353 351 345 337 326 315 308 300 293 292 295 295 296 298 298 298 294 292 293 293 293 294 296 297 297 299 299 302 298 293 298 310 313 306 305 307 303 301 299 297 294 290 284 279 276 274
155 159 163 139 114 95 79 76 81 88 93 95 94 91 86 81 78 75 74 73 76 84 86 81 82 80 79 81 82 75 67 62 55 49 33 25 20 4 356 347 343 348 351 350 340 334 326 318 311 304 304 299 297 297 298 299 299 301 298 294 294 294 295 299 301 299 299 299 299 301 294 293 304 315 311 308 309 308 304 302 300 297 293 289 285 280 276 273
170 173 161 129 113 100 90 89 91 94 97 98 96 90 81 77 79 81 81 83 82 82 81 78 77 75 75 75 70 65 59 52 42 28 11 9 4 355 353 344 344 349 350 350 341 335 334 329 320 314 315 310 302 298 295 294 293 296 295 294 297 297 298 303 302 299 299 295 295 296 292 295 307 313 309 310 309 308 306 303 299 296 292 289 284 277 273 270
174 171 151 131 116 103 96 97 100 101 100 97 95 91 82 77 82 85 83 84 83 81 81 79 73 68 67 62 58 53 47 40 27 12 359 359 356 351 347 340 344 348 348 350 342 338 341 337 325 319 319 311 304 300 295 291 289 292 291 293 298 298 300 303 302 301 299 293 293 295 294 297 305 310 310 309 307 307 306 303 300 295 290 287 281 274 270 268
170 160 144 127 111 104 102 106 107 106 104 100 99 94 85 82 84 84 81 80 84 85 79 70 63 62 57 46 44 37 32 27 17 8 359 357 351 345 342 339 343 346 347 349 345 342 341 338 329 321 318 309 306 304 297 293 291 289 288 291 298 302 305 309 311 310 303 296 294 295 295 298 304 310 310 307 307 306 303 301 298 294 289 283 277 272 268 266
160 149 135 120 111 110 112 114 108 106 109 107 103 95 90 88 83 79 78 78 84 84 75 61 49 50 46 41 40 30 21 19 14 6 359 356 350 345 344 342 343 344 345 347 346 343 336 332 326 319 316 311 310 306 301 301 300 299 298 299 305 309 312 314 318 316 307 298 296 295 295 298 305 310 308 307 306 303 299 297 295 290 285 279 274 268 265 264
151 140 127 119 118 121 122 115 104 103 106 107 103 96 91 86 79 77 75 75 77 74 69 56 45 44 39 33 29 21 16 14 9 3 357 354 351 348 346 343 342 342 344 345 342 340 334 330 328 325 321 312 305 303 306 311 311 312 311 311 313 313 314 316 320 318 310 302 297 297 298 301 306 307 306 305 301 297 295 293 289 284 278 274 269 264 261 260
141 130 125 125 127 128 123 112 105 101 101 102 100 95 89 83 80 78 74 75 76 75 67 55 48 44 34 24 18 13 9 5 4 2 356 353 352 348 348 348 344 343 345 344 342 341 337 335 335 333 323 311 308 309 313 315 315 315 314 314 315 313 313 315 318 317 313 306 301 302 304 305 307 307 308 304 296 293 293 290 285 279 273 267 262 259 257 257
132 127 130 132 130 124 118 115 111 106 103 99 93 90 88 86 82 78 80 78 71 69 61 49 43 38 29 20 14 8 5 5 8 5 354 351 352 349 351 352 347 347 348 345 346 345 342 341 336 331 326 322 321 319 317 316 315 316 314 314 314 313 312 315 318 318 318 311 306 309 310 308 308 310 310 303 295 294 292 289 286 279 269 263 258 253 255 258
129 132 135 132 126 119 116 114 110 106 104 98 92 88 90 91 87 83 83 67 57 57 52 44 37 33 27 18 14 14 14 9 1 356 352 354 356 353 354 353 351 353 351 348 348 346 345 343 336 333 332 330 327 320 316 314 313 314 314 313 313 313 312 314 317 320 321 313 308 312 311 308 310 311 309 303 298 298 293 286 284 278 266 258 252 250 254 258
131 134 135 131 127 121 115 110 105 100 96 94 93 92 94 96 88 79 67 54 51 48 45 41 32 30 25 20 25 32 25 9 348 347 355 1 1 359 357 355 356 357 354 349 346 346 347 341 338 336 333 331 327 321 316 313 313 313 314 312 311 314 314 313 316 321 321 314 310 313 311 309 312 311 309 308 301 298 291 284 279 273 263 253 250 251 254 255
132 135 135 134 130 122 115 109 104 100 99 99 100 102 102 91 81 72 58 52 51 45 43 36 28 29 25 23 32 38 29 17 5 4 4 5 3 1 359 357 359 359 355 348 344 348 345 337 338 334 330 329 325 322 317 312 313 312 312 311 310 316 318 315 318 322 319 312 310 312 310 309 313 312 312 311 300 295 288 284 277 263 257 251 250 250 249 250
135 138 137 134 127 118 113 108 103 104 108 112 113 116 104 81 75 71 57 49 45 40 37 29 26 28 25 25 28 33 27 19 14 11 9 7 4 2 359 358 358 356 354 349 346 347 341 337 337 331 327 326 324 322 317 313 312 311 312 313 312 317 319 315 319 321 317 313 312 314 313 311 313 318 317 312 303 298 293 288 274 250 243 243 243 244 244 247
141 140 134 127 120 112 107 102 99 103 108 120 138 95 47 60 74 66 51 41 36 32 28 23 23 24 23 23 21 24 21 15 12 9 8 7 5 4 360 358 355 352 352 351 348 346 341 337 333 329 326 324 325 322 318 315 312 314 319 319 316 319 319 317 321 320 315 313 313 319 319 310 307 308 311 311 307 301 295 285 264 240 235 236 237 240 242 247
144 138 129 120 113 107 102 95 92 92 93 112 106 48 42 41 16 352 335 24 24 24 22 18 19 21 19 19 20 21 14 10 9 8 7 6 6 6 360 358 353 349 351 350 349 345 340 337 332 329 326 325 326 322 319 317 313 317 324 322 318 319 318 318 320 316 309 304 303 308 306 289 298 304 310 311 306 298 289 274 252 236 234 235 236 240 243 247
146 138 127 116 108 103 96 86 83 60 50 81 68 57 35 26 22 343 278 354 8 12 18 16 17 16 14 18 20 19 16 9 6 5 6 5 6 6 0 359 353 348 350 350 348 345 340 337 332 328 326 326 328 324 321 319 314 317 322 319 317 317 317 318 318 311 303 300 300 304 301 277 289 302 313 312 306 294 278 259 244 236 236 237 238 242 244 247
149 142 130 117 107 98 80 65 35 1 10 44 36 35 10 6 18 2 73 100 4 3 12 14 14 12 10 14 16 17 17 9 4 6 8 8 7 5 1 1 356 351 352 350 347 345 341 336 332 328 328 331 331 326 322 319 315 317 320 318 316 317 316 316 314 307 302 299 298 306 307 276 284 301 315 312 302 288 271 259 246 239 239 239 240 242 245 250
155 151 143 134 117 56 348 335 338 340 355 18 27 26 4 356 350 23 83 86 4 3 8 9 12 12 9 10 11 14 13 10 9 8 6 7 6 3 2 2 1 357 355 351 346 344 342 338 336 335 336 336 332 328 324 321 318 320 321 319 317 318 318 317 314 305 299 289 288 308 312 265 295 308 315 315 303 289 279 264 248 242 240 238 239 243 250 260
162 165 170 183 241 304 315 325 330 320 313 351 24 29 24 25 349 114 80 35 360 7 7 7 11 16 16 12 11 14 15 14 15 12 6 7 5 1 0 0 1 0 356 349 344 346 348 345 346 345 340 337 334 333 330 324 322 325 326 324 322 324 325 323 314 303 297 279 281 323 320 286 292 306 311 314 309 302 291 264 245 241 238 237 242 250 261 273
173 183 199 227 259 288 313 331 339 319 302 312 305 8 35 35 44 96 80 359 1 7 8 12 12 16 19 17 17 18 18 16 15 14 9 7 2 357 0 1 360 1 358 351 349 353 357 357 355 348 344 341 336 335 335 330 330 332 329 327 327 329 332 329 318 317 299 282 309 322 318 297 263 296 305 306 303 301 290 264 245 238 236 241 250 260 274 289
183 198 216 237 258 283 315 354 12 16 101 131 85 68 62 44 52 67 61 12 4 5 12 18 15 18 19 19 19 19 21 19 14 12 9 7 2 0 6 7 4 4 359 353 350 351 356 1 358 349 347 347 340 336 338 338 337 334 330 334 339 336 337 337 322 323 276 288 308 316 314 297 277 291 299 300 299 294 280 260 244 237 240 250 262 274 290 302
191 208 218 229 244 264 94 77 72 91 91 96 94 75 93 95 66 58 57 53 28 14 22 22 18 22 21 19 20 20 22 19 14 13 10 7 4 6 9 6 6 7 358 353 349 347 351 358 357 349 347 349 344 338 337 336 335 333 333 340 343 336 333 319 302 309 288 298 308 313 308 294 291 297 298 298 296 286 271 257 244 244 249 263 280 292 304 311
193 202 202 198 176 136 133 120 109 103 74 72 100 97 101 102 90 74 64 55 38 27 31 29 23 23 21 19 20 19 18 16 14 14 9 7 5 7 8 4 5 5 358 357 354 346 341 343 350 347 343 346 345 339 334 330 330 331 332 335 328 307 292 286 277 283 291 299 303 305 299 287 297 300 297 296 291 278 268 258 250 250 260 280 294 304 313 319
183 180 171 163 161 152 154 145 114 97 79 83 98 120 115 102 97 91 67 50 42 34 36 37 30 27 24 22 21 18 15 12 12 11 10 7 6 6 6 4 3 1 360 359 354 345 328 322 341 343 340 345 343 340 336 331 331 329 331 332 324 311 298 282 280 284 286 291 296 299 295 291 299 298 296 294 284 275 268 260 256 259 276 294 305 315 322 324
160 158 150 147 159 156 121 99 92 93 90 90 98 110 108 102 102 95 71 57 47 38 40 40 30 29 27 25 22 17 13 11 9 10 10 7 6 6 4 3 1 358 359 357 352 347 323 323 341 346 343 349 345 341 339 334 332 328 329 331 326 319 306 286 288 295 296 292 294 300 300 303 307 300 293 287 276 272 266 263 268 278 297 312 319 323 325 326
144 138 133 131 125 104 88 77 77 94 94 97 117 110 102 101 97 90 76 63 51 43 42 40 30 25 23 22 20 15 12 12 10 8 8 7 5 4 2 1 359 355 355 354 350 346 323 325 341 349 345 347 345 340 342 342 338 331 330 333 332 325 312 294 291 302 306 292 291 299 301 305 305 296 291 287 278 277 276 277 287 302 317 323 324 324 323 323
131 124 121 112 85 74 94 96 96 100 94 99 116 109 101 100 92 85 76 61 53 46 40 39 33 23 20 18 15 12 11 11 10 8 8 7 3 1 1 359 356 353 353 351 349 348 333 323 335 344 342 344 346 342 344 348 346 339 333 335 334 322 308 305 296 296 304 290 290 299 301 302 297 291 296 296 292 289 286 288 302 316 322 323 321 320 319 320
109 107 113 105 90 79 90 109 119 108 103 108 111 104 100 99 91 82 72 61 53 44 38 37 31 23 20 16 11 10 10 9 10 9 8 5 1 359 359 356 354 353 351 350 347 346 340 318 320 334 338 341 348 347 345 347 346 340 334 334 332 319 309 307 299 293 296 292 301 304 304 308 303 303 307 302 296 292 292 303 315 320 321 320 320 321 322 324
97 95 104 105 100 93 93 106 108 102 111 116 108 104 101 97 88 77 69 61 51 44 38 34 28 23 18 14 11 9 9 9 8 8 6 3 1 358 355 352 352 352 350 350 347 343 342 315 303 326 337 341 348 350 346 345 342 336 332 332 330 323 320 315 304 299 295 289 307 309 301 307 312 312 310 302 293 297 311 320 322 322 322 323 326 328 328 327
98 98 104 103 101 105 103 103 102 103 111 109 103 102 98 91 84 75 67 57 50 43 35 30 25 21 15 13 11 8 8 8 6 7 6 3 1 355 350 349 349 353 352 351 350 345 341 320 304 322 335 339 344 348 345 342 339 334 331 330 329 325 323 320 307 306 303 291 294 297 291 304 312 316 314 306 304 315 323 324 323 323 326 329 329 328 327 327
101 103 104 100 102 109 105 100 104 106 106 102 98 97 92 86 78 69 60 52 47 39 32 29 22 17 14 11 10 8 6 7 7 7 5 2 358 350 348 349 349 352 354 352 352 347 340 329 316 321 329 337 345 350 349 347 342 337 333 331 330 326 322 316 297 305 304 294 294 291 281 305 320 330 333 326 321 322 323 322 322 324 326 327 327 326 326 326
106 106 103 103 106 107 102 100 104 103 99 96 94 91 85 80 73 64 56 48 43 37 31 27 20 16 14 10 9 7 5 7 8 5 3 358 354 350 349 351 350 352 354 353 352 349 345 339 330 328 332 339 345 347 346 347 341 334 333 332 329 326 325 318 306 307 302 292 300 296 284 311 326 334 332 326 321 319 319 318 319 322 324 325 326 326 327 326
109 106 102 104 103 102 102 99 93 93 93 91 89 85 78 73 67 59 53 45 39 35 29 24 20 17 13 10 8 7 6 7 5 2 1 355 352 353 351 352 353 353 353 353 352 350 349 345 338 334 335 340 343 344 341 339 335 329 329 332 330 329 330 325 319 317 305 297 311 306 289 307 318 323 322 320 317 316 315 316 320 325 326 327 327 327 328 327
107 105 104 104 98 98 105 98 87 82 82 82 80 77 72 67 61 54 49 41 35 32 25 21 18 15 13 10 8 7 7 6 2 360 359 354 352 353 352 353 354 352 353 353 351 350 348 347 345 337 324 325 324 325 329 328 326 325 329 334 335 334 334 328 323 318 305 308 314 304 295 307 316 321 321 318 316 315 316 320 325 328 328 327 328 329 329 329
104 103 103 101 98 98 98 93 88 78 72 72 71 70 66 62 57 51 45 38 33 28 23 18 15 12 11 9 8 9 6 4 3 360 358 356 352 351 351 352 352 352 353 351 350 350 346 345 346 333 315 309 308 315 327 327 321 323 330 335 341 341 335 329 322 315 313 315 313 310 312 314 319 323 321 318 317 318 323 327 329 329 328 328 329 330 331 330
104 103 99 98 101 102 94 89 87 78 68 65 64 63 61 57 55 49 42 36 29 24 20 16 13 11 10 8 8 7 5 4 3 1 359 357 352 350 349 349 351 352 351 350 350 350 343 339 341 332 323 323 324 327 333 331 323 324 328 334 341 338 330 329 324 323 328 322 310 316 322 319 320 323 320 318 322 325 328 330 330 329 329 329 330 331 330 328
99 98 96 100 107 104 94 87 84 77 69 61 58 57 55 51 50 45 39 33 26 22 18 14 12 11 9 9 7 5 4 3 2 1 359 356 354 352 350 349 352 352 351 351 348 346 341 336 337 333 328 332 337 336 337 335 329 329 332 335 337 333 332 336 334 334 337 324 311 319 323 320 319 320 318 322 328 329 329 329 329 330 330 331 332 331 328 327
92 94 92 94 102 99 91 84 80 75 67 57 52 52 48 45 44 40 35 30 24 20 16 12 12 10 9 8 6 4 3 360 359 0 359 358 355 352 353 355 353 350 350 348 345 344 340 336 338 336 330 335 344 343 340 337 332 334 340 339 335 333 333 333 332 334 334 325 321 323 322 319 319 321 324 327 329 328 328 330 331 331 332 333 333 329 328 329
81 88 87 85 90 92 89 83 76 72 64 53 48 47 44 41 41 36 32 26 21 18 15 12 12 10 9 8 5 5 2 359 358 357 357 359 356 352 354 356 350 347 346 344 343 343 340 338 342 337 328 335 348 344 337 337 336 335 336 334 334 334 331 330 331 334 333 329 327 325 321 321 325 327 328 328 328 329 331 331 331 332 334 334 331 328 328 329
67 70 77 78 77 81 85 82 74 68 59 49 45 43 40 37 35 32 29 24 18 16 14 12 12 11 9 8 6 4 3 360 358 356 354 356 355 352 350 346 344 343 341 342 343 345 344 342 343 340 327 331 345 343 336 339 342 336 335 335 334 332 332 333 334 335 335 330 327 327 328 329 329 327 327 328 330 332 332 330 330 333 335 332 329 328 328 327
58 54 61 66 64 69 76 75 70 63 53 45 41 38 36 33 30 28 26 21 16 15 13 12 12 10 10 9 6 4 2 359 358 356 354 355 352 349 343 338 339 339 339 343 344 346 348 344 344 343 327 327 342 342 334 340 348 344 338 333 325 324 330 332 332 334 335 331 328 328 326 323 324 327 329 331 332 332 329 328 332 335 332 328 327 328 327 326